リニア彗星

194P/LINEAR (2024)

English version
Home page
Updated on December 1, 2023

---------------------------------------------------------------------

・ プロフィール

・ 軌道要素

Epoch 2024 Feb. 20.0 TT = JDT 2460360.5
T 2024 Feb. 4.19728 TT                                  MPCW
q   1.7995260            (2000.0)            P               Q
n   0.11787568     Peri.  128.55998     -0.47378212     -0.87985610
a   4.1195829      Node   349.52461     +0.73088910     -0.36930137
e   0.5631776      Incl.   11.80598     +0.49125515     -0.29911492
P   8.36
From 215 observations 2000 Jan. 27-2016 Jan. 30, mean residual 0".6.
     Nongravitational parameters A1 = +0.43, A2 = -0.0174.

・ 光度変化

        m1 = 16.5 + 5 logΔ + 10.0 log r(t - 15)

---------------------------------------------------------------------

軌道要素はM.P.E.C. 2016-D32に掲載されたものです。
光度グラフはComet for Windowsで作成したものです。

---------------------------------------------------------------------

Copyright(C) Seiichi Yoshida (comet@aerith.net). All rights reserved.